DW6757 Weather Reports


Display with metric or nautical units.
time (UTC)temp
F
wind
direction
speed
MPH
gust
MPH
rain 1hr
in
rain 24hr
in
rain mn
in
humidity
%
barometer
mb
20260505191504 82 200 4.0 9.0 0.00 0.00 0.00 76 1008.0
20260505191004 82 183 5.0 9.0 0.00 0.00 0.00 76 1008.1
20260505190527 82 185 5.0 9.0 0.00 0.00 0.00 75 1008.0
20260505190025 82 196 5.0 10.0 0.00 0.00 0.00 75 1008.0
20260505185504 81 205 6.0 10.0 0.00 0.00 0.00 76 1008.2
20260505185004 81 203 6.0 11.0 0.00 0.00 0.00 77 1008.1
20260505184505 81 199 5.0 11.0 0.00 0.00 0.00 76 1008.3
20260505184004 80 201 5.0 9.0 0.00 0.00 0.00 78 1008.4
20260505183504 80 191 6.0 11.0 0.00 0.00 0.00 78 1008.4
20260505183025 80 184 6.0 11.0 0.00 0.00 0.00 77 1008.5
20260505182505 80 191 5.0 10.0 0.00 0.00 0.00 79 1008.4
20260505182005 80 193 5.0 10.0 0.00 0.00 0.00 80 1008.4
20260505181505 79 195 5.0 10.0 0.00 0.00 0.00 80 1008.5
20260505181004 79 183 5.0 10.0 0.00 0.00 0.00 82 1008.5
20260505180505 79 168 4.0 9.0 0.00 0.00 0.00 82 1008.5
20260505180004 78 178 4.0 9.0 0.00 0.00 0.00 82 1008.6
20260505175525 78 192 4.0 8.0 0.00 0.00 0.00 82 1008.6
20260505175005 78 191 4.0 8.0 0.00 0.00 0.00 81 1008.6
20260505174504 78 192 4.0 8.0 0.00 0.00 0.00 82 1008.7
20260505174005 78 203 5.0 9.0 0.00 0.00 0.00 82 1008.7
20260505173504 78 197 5.0 9.0 0.00 0.00 0.00 83 1008.9
20260505173005 78 188 4.0 8.0 0.00 0.00 0.00 82 1008.8
20260505172504 78 187 4.0 8.0 0.00 0.00 0.00 82 1008.8
20260505172005 77 193 5.0 9.0 0.00 0.00 0.00 83 1008.8
20260505171504 77 196 5.0 9.0 0.00 0.00 0.00 83 1008.8
20260505171004 77 197 5.0 12.0 0.00 0.00 0.00 83 1008.8
20260505170504 77 195 6.0 12.0 0.00 0.00 0.00 83 1008.9
20260505170004 77 199 5.0 9.0 0.00 0.00 0.00 84 1008.9
20260505165525 77 210 6.0 10.0 0.00 0.00 0.00 84 1009.0
20260505165004 76 211 6.0 11.0 0.00 0.00 0.00 84 1009.0
20260505164505 76 210 7.0 12.0 0.00 0.00 0.00 84 1009.0
20260505164025 76 210 7.0 12.0 0.00 0.00 0.00 84 1009.0
20260505163504 76 206 6.0 10.0 0.00 0.00 0.00 84 1008.9
20260505163025 76 201 6.0 10.0 0.00 0.00 0.00 85 1008.9
20260505162504 76 203 6.0 11.0 0.00 0.00 0.00 85 1008.9
20260505162025 76 209 6.0 11.0 0.00 0.00 0.00 86 1008.9
20260505161505 75 211 6.0 10.0 0.00 0.00 0.00 86 1009.0
20260505161004 75 210 6.0 11.0 0.00 0.00 0.00 87 1008.8
20260505160526 75 212 6.0 11.0 0.00 0.00 0.00 87 1008.8
20260505153005 74 217 6.0 12.0 0.00 0.00 0.00 88 1008.8
20260505152504 74 211 6.0 12.0 0.00 0.00 0.00 88 1008.8
20260505152006 74 207 5.0 11.0 0.00 0.00 0.00 88 1008.8
20260505151504 74 203 5.0 10.0 0.00 0.00 0.00 89 1008.8
20260505151004 73 206 6.0 10.0 0.00 0.00 0.00 89 1008.8
20260505150504 73 213 5.0 11.0 0.00 0.00 0.00 89 1008.9
20260505140505 71 212 6.0 13.0 0.00 0.00 0.00 92 1008.8
20260505125004 71 201 6.0 12.0 0.00 0.00 0.00 91 1008.5
20260505124504 71 198 6.0 12.0 0.00 0.00 0.00 91 1008.3
20260505124004 71 201 6.0 10.0 0.00 0.00 0.00 91 1008.4
20260505123504 71 198 7.0 13.0 0.00 0.00 0.00 91 1008.3
20260505123004 71 199 7.0 13.0 0.00 0.00 0.00 91 1008.2
20260505122505 71 203 6.0 14.0 0.00 0.00 0.00 91 1008.2
20260505122026 71 207 7.0 14.0 0.00 0.00 0.00 91 1008.1
20260505121504 71 203 7.0 12.0 0.00 0.00 0.00 91 1008.1
20260505121004 71 205 7.0 12.0 0.00 0.00 0.00 91 1008.1
20260505120504 71 205 7.0 12.0 0.00 0.00 0.00 91 1007.9
20260505120006 71 201 7.0 13.0 0.00 0.00 0.00 91 1007.8
20260505115525 71 200 8.0 14.0 0.00 0.00 0.00 91 1007.8
20260505115004 71 197 8.0 14.0 0.00 0.00 0.00 91 1007.8
20260505114504 71 194 7.0 14.0 0.00 0.00 0.00 91 1007.8
20260505114004 71 196 6.0 14.0 0.00 0.00 0.00 91 1007.7
20260505113505 71 199 6.0 11.0 0.00 0.00 0.00 91 1007.7
20260505113004 71 204 7.0 15.0 0.00 0.00 0.00 91 1007.7
20260505112504 71 202 8.0 16.0 0.00 0.00 0.00 91 1007.6
20260505112004 71 200 7.0 16.0 0.00 0.00 0.00 91 1007.6
20260505111504 71 200 7.0 18.0 0.00 0.00 0.00 91 1007.7
20260505111004 71 198 8.0 18.0 0.00 0.00 0.00 91 1007.7
20260505110504 71 199 7.0 11.0 0.00 0.00 0.00 91 1007.6
20260505102004 70 202 6.0 11.0 0.00 0.00 0.00 92 1007.9
20260505101504 70 200 6.0 11.0 0.00 0.00 0.00 92 1008.0
20260505101025 70 198 6.0 11.0 0.00 0.00 0.00 92 1007.9
20260505100504 70 200 6.0 11.0 0.00 0.00 0.00 93 1007.9
20260505100005 70 197 6.0 11.0 0.00 0.00 0.00 93 1008.0
20260505095525 70 197 6.0 11.0 0.00 0.00 0.00 93 1008.0
20260505095004 69 197 5.0 8.0 0.00 0.00 0.00 93 1008.0
20260505094504 69 197 5.0 7.0 0.00 0.00 0.00 93 1008.1
20260505094004 69 200 4.0 7.0 0.00 0.00 0.00 93 1008.0
20260505093525 69 202 4.0 8.0 0.00 0.00 0.00 93 1008.1
20260505093025 69 203 5.0 8.0 0.00 0.00 0.00 93 1008.2
20260505092504 69 200 4.0 7.0 0.00 0.00 0.00 93 1008.1
20260505092025 69 192 4.0 9.0 0.00 0.00 0.00 93 1008.2
20260505091504 69 189 4.0 9.0 0.00 0.00 0.00 93 1008.0
20260505091004 69 190 4.0 7.0 0.00 0.00 0.00 93 1008.2
20260505090504 69 192 4.0 7.0 0.00 0.00 0.00 93 1008.1
20260505090004 69 192 5.0 7.0 0.00 0.00 0.00 93 1008.0
20260505085504 68 189 5.0 9.0 0.00 0.00 0.00 93 1008.3
20260505085005 68 186 5.0 9.0 0.00 0.00 0.00 93 1008.3
20260505084504 68 189 5.0 9.0 0.00 0.00 0.00 93 1008.2
20260505084004 68 192 5.0 8.0 0.00 0.00 0.00 93 1008.6
20260505083504 68 192 4.0 8.0 0.00 0.00 0.00 93 1008.7
20260505083004 68 188 4.0 8.0 0.00 0.00 0.00 93 1008.6
20260505082504 68 190 4.0 8.0 0.00 0.00 0.00 93 1008.7
20260505082004 68 193 4.0 7.0 0.00 0.00 0.00 93 1008.7
20260505081505 68 191 4.0 8.0 0.00 0.00 0.00 93 1008.8
20260505081004 68 187 4.0 8.0 0.00 0.00 0.00 93 1008.7
20260505080525 68 186 4.0 8.0 0.00 0.00 0.00 93 1008.8
20260505080004 68 190 5.0 8.0 0.00 0.00 0.00 93 1008.8
20260505075504 68 191 4.0 8.0 0.00 0.00 0.00 93 1008.9
20260505075004 68 189 4.0 8.0 0.00 0.00 0.00 92 1009.0
20260505074504 68 188 5.0 9.0 0.00 0.00 0.00 92 1009.1
20260505074004 68 189 5.0 9.0 0.00 0.00 0.00 92 1009.2
20260505073504 68 191 5.0 8.0 0.00 0.00 0.00 92 1009.2
20260505073025 68 192 4.0 8.0 0.00 0.00 0.00 92 1009.3
20260505072504 69 193 4.0 8.0 0.00 0.00 0.00 92 1009.4
20260505072005 69 192 5.0 8.0 0.00 0.00 0.00 92 1009.5
20260505071525 69 191 5.0 8.0 0.00 0.00 0.00 92 1009.5
20260505071024 69 191 5.0 8.0 0.00 0.00 0.00 92 1009.6
20260505070504 69 190 4.0 8.0 0.00 0.00 0.00 91 1009.6
20260505070025 69 190 5.0 7.0 0.00 0.00 0.00 91 1009.7
20260505065504 69 196 5.0 9.0 0.00 0.00 0.00 91 1009.7
20260505065004 69 197 6.0 10.0 0.00 0.00 0.00 91 1009.8
20260505064504 69 193 6.0 10.0 0.00 0.00 0.00 91 1009.8
20260505064025 69 193 6.0 10.0 0.00 0.00 0.00 91 1009.6
20260505063504 69 191 6.0 10.0 0.00 0.00 0.00 91 1009.8
20260505063004 69 190 6.0 10.0 0.00 0.00 0.00 90 1009.7
20260505062504 69 193 6.0 10.0 0.00 0.00 0.00 90 1009.8
20260505062004 69 193 5.0 10.0 0.00 0.00 0.00 90 1010.1
20260505061504 69 192 6.0 11.0 0.00 0.00 0.00 90 1010.1
20260505061024 70 187 7.0 15.0 0.00 0.00 0.00 90 1010.1
20260505060504 70 187 8.0 15.0 0.00 0.00 0.00 89 1010.0
20260505060025 70 186 7.0 14.0 0.00 0.00 0.00 89 1010.0
20260505055504 70 180 6.0 14.0 0.00 0.00 0.00 89 1010.0
20260505055004 70 182 7.0 15.0 0.00 0.00 0.00 89 1009.9
20260505054504 70 185 7.0 15.0 0.00 0.00 0.00 89 1009.9
20260505054004 70 186 7.0 14.0 0.00 0.00 0.00 89 1009.9
20260505053504 70 180 6.0 14.0 0.00 0.00 0.00 88 1009.9
20260505053004 70 173 6.0 14.0 0.00 0.00 0.00 88 1010.0
20260505052503 70 174 6.0 13.0 0.00 0.00 0.00 88 1009.8
20260505052004 70 171 6.0 13.0 0.00 0.00 0.00 88 1009.8
20260505051505 70 171 6.0 11.0 0.00 0.00 0.00 87 1009.8
20260505051004 70 169 6.0 11.0 0.00 0.00 0.00 87 1009.9
20260505050504 70 167 6.0 13.0 0.00 0.00 0.00 87 1010.0
20260505041504 71 165 5.0 10.0 0.00 0.00 0.00 85 1010.2
20260505041004 72 165 5.0 10.0 0.00 0.00 0.00 85 1010.2
20260505040504 72 158 6.0 10.0 0.00 0.00 0.00 84 1010.2
20260505040025 72 155 6.0 12.0 0.00 0.00 0.00 84 1010.1
20260505035525 72 158 7.0 13.0 0.00 0.00 0.00 84 1010.0
20260505035004 72 160 6.0 13.0 0.00 0.00 0.00 84 1010.0
20260505034504 72 158 5.0 11.0 0.00 0.00 0.00 84 1010.0
20260505034025 72 157 5.0 10.0 0.00 0.00 0.00 84 1010.1
20260505033504 72 156 6.0 10.0 0.00 0.00 0.00 83 1010.1
20260505033004 73 157 6.0 11.0 0.00 0.00 0.00 83 1010.1
20260505032525 73 160 6.0 11.0 0.00 0.00 0.00 83 1010.0
20260505032003 73 160 6.0 11.0 0.00 0.00 0.00 83 1010.0
20260505031504 73 161 6.0 11.0 0.00 0.00 0.00 83 1010.0
20260505031004 73 159 5.0 10.0 0.00 0.00 0.00 82 1010.2
20260505030503 73 153 5.0 10.0 0.00 0.00 0.00 82 1010.2
20260505030004 73 153 5.0 9.0 0.00 0.00 0.00 82 1010.2
20260505025503 74 157 5.0 9.0 0.00 0.00 0.00 82 1010.2
20260505025004 74 158 5.0 9.0 0.00 0.00 0.00 82 1010.0
20260505024503 74 159 5.0 10.0 0.00 0.00 0.00 81 1010.0
20260505024003 74 157 5.0 10.0 0.00 0.00 0.00 81 1009.9
20260505023524 74 157 5.0 9.0 0.00 0.00 0.00 81 1009.8
20260505023003 74 155 4.0 10.0 0.00 0.00 0.00 80 1009.8
20260505022504 74 150 3.0 10.0 0.00 0.00 0.00 80 1009.8
20260505022004 74 150 3.0 5.0 0.00 0.00 0.00 80 1009.7
20260505021504 75 154 3.0 7.0 0.00 0.00 0.00 79 1009.6
20260505021004 75 157 4.0 7.0 0.00 0.00 0.00 78 1009.4
20260505020504 75 157 4.0 8.0 0.00 0.00 0.00 78 1009.4
20260505020004 75 160 3.0 8.0 0.00 0.00 0.00 78 1009.3
20260505015503 75 162 3.0 7.0 0.00 0.00 0.00 78 1009.2
20260505015025 76 159 4.0 7.0 0.00 0.00 0.00 77 1009.3
20260505014504 76 159 4.0 7.0 0.00 0.00 0.00 77 1009.4
20260505014004 76 162 3.0 6.0 0.00 0.00 0.00 77 1009.3
20260505013524 76 163 3.0 8.0 0.00 0.00 0.00 77 1009.4
20260505013003 76 163 3.0 8.0 0.00 0.00 0.00 76 1009.3
20260505012505 76 165 3.0 8.0 0.00 0.00 0.00 76 1009.2
20260505012004 76 168 3.0 8.0 0.00 0.00 0.00 76 1009.2
20260505011505 77 169 4.0 8.0 0.00 0.00 0.00 75 1009.1
20260505011004 77 165 4.0 9.0 0.00 0.00 0.00 74 1009.1
20260505010505 77 163 5.0 9.0 0.00 0.00 0.00 74 1009.1
20260505010026 77 159 5.0 10.0 0.00 0.00 0.00 74 1009.2
20260505005504 77 161 6.0 12.0 0.00 0.00 0.00 73 1009.0
20260505005005 78 168 6.0 12.0 0.00 0.00 0.00 73 1009.0
20260505004504 78 172 5.0 10.0 0.00 0.00 0.00 73 1009.1
20260505004005 78 171 6.0 10.0 0.00 0.00 0.00 73 1009.0
20260505003505 78 171 6.0 14.0 0.00 0.00 0.00 72 1009.0
20260505003005 78 168 7.0 14.0 0.00 0.00 0.00 72 1009.2
20260505002504 78 167 7.0 13.0 0.00 0.00 0.00 71 1009.0
20260505002004 79 170 7.0 15.0 0.00 0.00 0.00 71 1009.1
20260505001504 79 170 7.0 18.0 0.00 0.00 0.00 71 1009.1
20260505001026 79 175 8.0 18.0 0.00 0.00 0.00 71 1009.2
20260505000504 79 174 8.0 17.0 0.00 0.00 0.00 70 1009.3
20260505000005 79 165 7.0 17.0 0.00 0.00 0.00 70 1009.3
20260504235505 80 162 7.0 13.0 0.00 0.00 0.00 69 1009.4
20260504235005 80 176 8.0 14.0 0.00 0.00 0.00 69 1009.4
20260504234506 80 183 8.0 14.0 0.00 0.00 0.00 69 1009.6
20260504234004 80 179 7.0 11.0 0.00 0.00 0.00 69 1009.6
20260504233504 80 177 7.0 12.0 0.00 0.00 0.00 68 1009.6
20260504233004 80 181 8.0 15.0 0.00 0.00 0.00 68 1009.7
20260504232504 80 176 7.0 15.0 0.00 0.00 0.00 67 1009.8
20260504232005 81 165 6.0 13.0 0.00 0.00 0.00 67 1009.8
20260504231504 80 160 6.0 12.0 0.00 0.00 0.00 67 1009.9
20260504231004 80 166 5.0 10.0 0.00 0.00 0.00 67 1009.9
20260504230505 80 166 5.0 10.0 0.00 0.00 0.00 67 1010.1
20260504230005 80 157 6.0 11.0 0.00 0.00 0.00 66 1010.0
20260504225505 81 155 6.0 11.0 0.00 0.00 0.00 66 1010.1
20260504225004 80 160 7.0 11.0 0.00 0.00 0.00 66 1010.1
20260504224504 80 172 6.0 13.0 0.00 0.00 0.00 65 1010.3
20260504224004 81 172 6.0 13.0 0.00 0.00 0.00 65 1010.2
20260504223504 81 176 6.0 12.0 0.00 0.00 0.00 64 1010.1
20260504223004 81 189 7.0 12.0 0.00 0.00 0.00 64 1010.2
20260504222504 81 189 6.0 13.0 0.00 0.00 0.00 65 1010.2
20260504222025 81 183 6.0 13.0 0.00 0.00 0.00 64 1010.2
20260504221504 81 178 6.0 12.0 0.00 0.00 0.00 63 1010.2
20260504221004 82 177 7.0 13.0 0.00 0.00 0.00 64 1010.2
20260504220525 81 182 7.0 13.0 0.00 0.00 0.00 64 1010.3
20260504220004 81 183 7.0 12.0 0.00 0.00 0.00 64 1010.2
20260504215504 81 192 8.0 13.0 0.00 0.00 0.00 63 1010.2
20260504215025 81 191 7.0 15.0 0.00 0.00 0.00 64 1010.3
20260504214525 81 182 8.0 15.0 0.00 0.00 0.00 64 1010.3
20260504214005 81 183 8.0 15.0 0.00 0.00 0.00 64 1010.4
20260504213525 81 178 7.0 12.0 0.00 0.00 0.00 64 1010.6
20260504213004 81 180 8.0 16.0 0.00 0.00 0.00 63 1010.6
20260504212504 81 182 8.0 16.0 0.00 0.00 0.00 63 1010.7
20260504212005 80 184 8.0 14.0 0.00 0.00 0.00 63 1010.9
20260504211504 81 195 8.0 15.0 0.00 0.00 0.00 63 1010.9
20260504211004 81 196 8.0 15.0 0.00 0.00 0.00 62 1011.1
20260504210504 81 186 8.0 14.0 0.00 0.00 0.00 62 1011.1
20260504210004 81 194 7.0 14.0 0.00 0.00 0.00 62 1011.1
20260504205504 81 212 7.0 13.0 0.00 0.00 0.00 62 1011.1
20260504205004 81 206 7.0 13.0 0.00 0.00 0.00 63 1011.3
20260504204504 81 193 9.0 16.0 0.00 0.00 0.00 62 1011.4
20260504204025 81 193 9.0 16.0 0.00 0.00 0.00 61 1011.4
20260504203505 81 193 9.0 16.0 0.00 0.00 0.00 63 1011.5
20260504203026 81 187 8.0 16.0 0.00 0.00 0.00 62 1011.5
20260504202526 81 190 7.0 16.0 0.00 0.00 0.00 63 1011.6
20260504202004 80 195 7.0 14.0 0.00 0.00 0.00 62 1011.6
20260504201504 80 195 9.0 14.0 0.00 0.00 0.00 63 1011.8
20260504201004 80 194 8.0 13.0 0.00 0.00 0.00 63 1011.9
20260504200525 80 193 9.0 14.0 0.00 0.00 0.00 62 1012.1
20260504200004 80 191 8.0 14.0 0.00 0.00 0.00 62 1012.1
20260504195525 80 193 7.0 14.0 0.00 0.00 0.00 64 1012.1
20260504195004 80 204 8.0 14.0 0.00 0.00 0.00 63 1012.1
20260504194525 80 206 8.0 14.0 0.00 0.00 0.00 63 1012.2
20260504194004 80 191 9.0 16.0 0.00 0.00 0.00 63 1012.3
20260504193504 80 190 8.0 16.0 0.00 0.00 0.00 63 1012.6
20260504193004 81 201 7.0 15.0 0.00 0.00 0.00 63 1012.7
20260504192504 81 195 7.0 15.0 0.00 0.00 0.00 62 1012.5
20260504192025 81 198 8.0 15.0 0.00 0.00 0.00 62 1012.6